Anaktuvuk Pass, AK

8:13 PM AKDT on July 20, 2017 (GMT -0800)
Anaktuvuk Pass

Weather History for PAKP - February, 2013

Change the Weather History Date:

Sunday, February 10, 2013

  Actual Average Record
Temperature  
Mean Temperature -11 °F -  
Max Temperature 1 °F -1 °F 21 °F (2012)
Min Temperature -23 °F -11 °F -32 °F (1999)
Degree Days  
Heating Degree Days 76    
Moisture  
Dew Point -22 °F    
Average Humidity 62    
Maximum Humidity 69    
Minimum Humidity 54    
Precipitation  
Precipitation 0.00 in - - ()
Sea Level Pressure  
Sea Level Pressure 29.12 in    
Wind  
Wind Speed 7 mph (NNE)    
Max Wind Speed 14 mph    
Max Gust Speed -    
Visibility 9 miles    
Events      
Averages and records for this station are not official NWS values.
T = Trace of Precipitation, MM = Missing Value Source: NWS Daily Summary

Daily Weather History Graph

Daily Weather History Graph

Search for Another Location

Airport or City:

Trip Planner

Search our weather history database for the weather conditions in past years. The results will help you decide how hot, cold, wet, or windy it might be!

Date:

Astronomy

Feb. 10, 2013 Rise Set
Actual Time 9:44 AM AKST 4:59 PM AKST
Civil Twilight 8:40 AM AKST 6:03 PM AKST
Nautical Twilight 7:33 AM AKST 7:10 PM AKST
Astronomical Twilight 6:28 AM AKST 8:15 PM AKST
Moon 8:54 AM AKST (2/10) 7:00 PM AKST (2/10)
Length of Visible Light 9h 23m
Length of Day
7h 14m
New Moon, 0% of the Moon is Illuminated
Feb 10
New Moon
Feb 17
First Quarter
Feb 25
Full
Mar 4
Last Quarter
Mar 11
New

Hourly Weather History & Observations

Time (AKST) Temp. Windchill Dew Point Humidity Pressure Visibility Wind Dir Wind Speed Gust Speed Precip Events Conditions
12:16 AM -0.4 °F - -9.4 °F 66% 29.11 in 10.0 mi Calm Calm - N/A   Overcast
12:36 AM 1.4 °F - -7.6 °F 66% 29.11 in 10.0 mi Calm Calm - N/A   Overcast
12:56 AM 1.4 °F -6.2 °F -9.4 °F 61% 29.09 in 10.0 mi North 3.5 mph - N/A   Overcast
1:16 AM -0.4 °F -12.0 °F -9.4 °F 66% 29.09 in 10.0 mi NNE 5.8 mph - N/A   Overcast
1:36 AM -2.2 °F -16.8 °F -11.2 °F 66% 29.08 in 10.0 mi NNE 8.1 mph - N/A   Overcast
1:56 AM -2.2 °F -12.5 °F - N/A% 29.09 in 10.0 mi North 4.6 mph - N/A   Overcast
2:16 AM -2.2 °F -15.6 °F -11.2 °F 66% 29.08 in 10.0 mi North 6.9 mph - N/A   Overcast
2:36 AM -2.2 °F -15.6 °F -11.2 °F 66% 29.08 in 10.0 mi North 6.9 mph - N/A   Overcast
2:56 AM -4.0 °F -17.8 °F -13.0 °F 65% 29.07 in 10.0 mi North 6.9 mph - N/A   Overcast
3:16 AM -2.2 °F -15.6 °F -11.2 °F 66% 29.06 in 10.0 mi North 6.9 mph - N/A   Overcast
3:36 AM -5.8 °F -21.2 °F -16.6 °F 60% 29.06 in 10.0 mi NNE 8.1 mph - N/A   Mostly Cloudy
3:56 AM -5.8 °F -22.4 °F -16.6 °F 60% 29.05 in 10.0 mi NNE 9.2 mph - N/A   Clear
4:16 AM -9.4 °F -27.9 °F -22.0 °F 54% 29.05 in 10.0 mi NNE 10.4 mph - N/A   Clear
4:36 AM -11.2 °F -26.4 °F -22.0 °F 59% 29.05 in 10.0 mi North 6.9 mph - N/A   Partly Cloudy
4:56 AM -13.0 °F -31.3 °F -23.8 °F 59% 29.05 in 10.0 mi North 9.2 mph - N/A   Mostly Cloudy
5:16 AM -13.0 °F -32.4 °F -23.8 °F 59% 29.05 in 10.0 mi NNE 10.4 mph - N/A   Overcast
5:36 AM -13.0 °F -31.3 °F -22.0 °F 64% 29.05 in 10.0 mi NNE 9.2 mph - N/A   Overcast
5:56 AM -14.8 °F -35.6 °F -23.8 °F 64% 29.05 in 10.0 mi NNE 11.5 mph - N/A   Overcast
6:16 AM -14.8 °F -35.6 °F -25.6 °F 58% 29.05 in 10.0 mi NNE 11.5 mph - N/A   Overcast
6:36 AM -16.6 °F -35.7 °F -25.6 °F 64% 29.05 in 10.0 mi NNE 9.2 mph - N/A   Overcast
6:56 AM -16.6 °F -36.8 °F -25.6 °F 64% 29.05 in 10.0 mi NNE 10.4 mph - N/A   Overcast
7:16 AM -16.6 °F -37.9 °F -25.6 °F 64% 29.05 in 10.0 mi NNE 11.5 mph - N/A   Overcast
7:36 AM -16.6 °F -35.7 °F -27.4 °F 58% 29.06 in 10.0 mi NNE 9.2 mph - N/A   Overcast
7:56 AM -18.4 °F -40.2 °F -27.4 °F 63% 29.06 in 10.0 mi NNE 11.5 mph - N/A   Overcast
8:16 AM -18.4 °F -41.2 °F -29.2 °F 58% 29.06 in 8.0 mi NNE 12.7 mph - N/A   Overcast
8:36 AM -18.4 °F -42.1 °F -29.2 °F 58% 29.07 in 8.0 mi NNE 13.8 mph - N/A   Overcast
8:56 AM -20.2 °F -42.4 °F - N/A% 29.07 in 9.0 mi NNE 11.5 mph - N/A   Overcast
9:16 AM -20.2 °F -42.4 °F - N/A% 29.08 in 5.0 mi NNE 11.5 mph - N/A   Overcast
9:36 AM -20.2 °F -41.3 °F - N/A% 29.08 in 6.0 mi NNE 10.4 mph - N/A   Overcast
9:56 AM -20.2 °F -41.3 °F - N/A% 29.08 in 7.0 mi NNE 10.4 mph - N/A   Overcast
10:16 AM -20.2 °F -40.1 °F - N/A% 29.08 in 10.0 mi NNE 9.2 mph - N/A   Overcast
10:36 AM -20.2 °F -41.3 °F - N/A% 29.08 in 10.0 mi NNE 10.4 mph - N/A   Overcast
10:56 AM -20.2 °F -40.1 °F - N/A% 29.09 in 10.0 mi NNE 9.2 mph - N/A   Overcast
11:16 AM -20.2 °F -42.4 °F - N/A% 29.09 in 10.0 mi NNE 11.5 mph - N/A   Overcast
11:36 AM -22.0 °F -44.7 °F - N/A% 29.09 in 10.0 mi NNE 11.5 mph - N/A   Overcast
11:56 AM -22.0 °F -45.7 °F - N/A% 29.10 in 10.0 mi NE 12.7 mph - N/A   Overcast
12:16 PM -23.8 °F -46.9 °F - N/A% 29.10 in 10.0 mi NE 11.5 mph - N/A   Overcast
12:36 PM -23.8 °F -44.5 °F - N/A% 29.11 in 10.0 mi NNE 9.2 mph - N/A   Overcast
12:56 PM -23.8 °F -46.9 °F - N/A% 29.11 in 10.0 mi NE 11.5 mph - N/A   Mostly Cloudy
1:16 PM -23.8 °F -45.8 °F - N/A% 29.12 in 10.0 mi NNE 10.4 mph - N/A   Scattered Clouds
1:36 PM -23.8 °F -45.8 °F - N/A% 29.12 in 10.0 mi NNE 10.4 mph - N/A   Scattered Clouds
1:56 PM -23.8 °F -45.8 °F - N/A% 29.13 in 10.0 mi NNE 10.4 mph - N/A   Partly Cloudy
2:16 PM -23.8 °F -43.2 °F - N/A% 29.13 in 10.0 mi NNE 8.1 mph - N/A   Partly Cloudy
2:36 PM -22.0 °F -43.6 °F - N/A% 29.13 in 10.0 mi NNE 10.4 mph - N/A   Mostly Cloudy
2:56 PM -22.0 °F -43.6 °F - N/A% 29.14 in 10.0 mi NNE 10.4 mph - N/A   Overcast
3:16 PM -22.0 °F -43.6 °F - N/A% 29.14 in 10.0 mi NNE 10.4 mph - N/A   Overcast
3:36 PM -22.0 °F -43.6 °F - N/A% 29.14 in 10.0 mi NNE 10.4 mph - N/A   Overcast
3:56 PM -22.0 °F -43.6 °F - N/A% 29.15 in 10.0 mi NNE 10.4 mph - N/A   Overcast
4:16 PM -20.2 °F -38.8 °F - N/A% 29.16 in 10.0 mi NNE 8.1 mph - N/A   Overcast
4:36 PM -20.2 °F -40.1 °F -27.4 °F 69% 29.16 in 2.5 mi NNE 9.2 mph - N/A   Overcast
4:56 PM -20.2 °F -41.3 °F - N/A% 29.16 in 4.0 mi NNE 10.4 mph - N/A   Overcast
5:16 PM -20.2 °F -40.1 °F - N/A% 29.16 in 5.0 mi NNE 9.2 mph - N/A   Overcast
5:36 PM -20.2 °F -40.1 °F - N/A% 29.17 in 9.0 mi NNE 9.2 mph - N/A   Mostly Cloudy
5:56 PM -20.2 °F -40.1 °F - N/A% 29.17 in 10.0 mi NNE 9.2 mph - N/A   Partly Cloudy
6:16 PM -20.2 °F -40.1 °F - N/A% 29.18 in 10.0 mi NNE 9.2 mph - N/A   Partly Cloudy
6:36 PM -20.2 °F -38.8 °F - N/A% 29.17 in 10.0 mi NNE 8.1 mph - N/A   Clear
6:56 PM -20.2 °F -37.3 °F - N/A% 29.18 in 10.0 mi NE 6.9 mph - N/A   Clear
7:16 PM -20.2 °F -38.8 °F - N/A% 29.18 in 10.0 mi NNE 8.1 mph - N/A   Partly Cloudy
7:36 PM -20.2 °F -35.5 °F -29.2 °F 63% 29.18 in 10.0 mi NE 5.8 mph - N/A   Mostly Cloudy
7:56 PM -20.2 °F -37.3 °F -29.2 °F 63% 29.18 in 5.0 mi NNE 6.9 mph - N/A   Overcast
8:16 PM -18.4 °F -33.4 °F -29.2 °F 58% 29.18 in 5.0 mi NNE 5.8 mph - N/A   Overcast
8:36 PM -18.4 °F -31.4 °F -27.4 °F 63% 29.18 in 4.0 mi NNE 4.6 mph - N/A   Overcast
8:56 PM -18.4 °F -28.9 °F -27.4 °F 63% 29.17 in 5.0 mi NNE 3.5 mph - N/A   Overcast
9:16 PM -18.4 °F - -27.4 °F 63% 29.17 in 7.0 mi Calm Calm - N/A   Overcast
9:36 PM -16.6 °F - -27.4 °F 58% 29.17 in 3.0 mi Calm Calm - N/A   Overcast
9:56 PM -16.6 °F -26.8 °F -27.4 °F 58% 29.18 in 2.5 mi NNE 3.5 mph - N/A   Overcast
10:16 PM -16.6 °F - -25.6 °F 64% 29.17 in 3.0 mi Calm Calm - N/A   Overcast
10:36 PM -14.8 °F -24.8 °F -23.8 °F 64% 29.18 in 9.0 mi NNE 3.5 mph - N/A   Overcast
10:56 PM -14.8 °F - -25.6 °F 58% 29.18 in 5.0 mi Calm Calm - N/A   Overcast
11:16 PM -14.8 °F - -23.8 °F 64% 29.19 in 8.0 mi Calm Calm - N/A   Overcast
11:36 PM -14.8 °F - -23.8 °F 64% 29.20 in 7.0 mi Calm Calm - N/A   Overcast
11:56 PM -13.0 °F -25.1 °F -23.8 °F 59% 29.20 in 5.0 mi NNE 4.6 mph - N/A   Overcast